Regional Weather Roundup
Issued by NWS

Home | Current Version | Previous Version | Graphics & Text | Print | Product List | Glossary On
Versions: 1 2 3 4 5 6 7 8 9 10 11 12 13 14 15 16 17 18 19 20 21 22 23 24 25 26 27 28 29 30 31 32 33 34 35 36 37 38 39 40 41 42 43 44 45 46 47 48 49 50
000
ASUS43 KFSD 272010
RWRSD

WEATHER ROUNDUP FOR SOUTH DAKOTA
NATIONAL WEATHER SERVICE SIOUX FALLS SD
300 PM CDT WED JUL 27 2016

NOTE: "FAIR" INDICATES FEW OR NO CLOUDS BELOW 12,000 FEET WITH NO
SIGNIFICANT WEATHER AND/OR OBSTRUCTIONS TO VISIBILITY.


SDZ001>005-009-010-012>017-272100-
NORTHWEST AND NORTH CENTRAL SOUTH DAKOTA

CITY           SKY/WX    TMP DP  RH WIND       PRES   REMARKS
BUFFALO          N/A     63  59  87 E13       30.08F
FAITH            N/A     75  62  64 N17       30.14R
MOBRIDGE       CLOUDY    82  61  48 NE9       30.06S
$$

SDZ012>016-024>037-041>051-057-063-072>074-272100-
SOUTHWEST AND SOUTH CENTRAL SOUTH DAKOTA

CITY           SKY/WX    TMP DP  RH WIND       PRES   REMARKS
RAPID CTY ARPT PTSUNNY   77  60  55 N13       30.15R
PIERRE         MOSUNNY   87  60  40 NE15      30.02F
CUSTER         TSTM      59  54  83 NE13G26   30.27R
ELLSWORTH AFB  LGT RAIN  77  62  59 NE10      30.13
PHILIP         PTSUNNY   83  61  47 NE16      30.05F
PINE RIDGE     SUNNY     83  63  50 NE12      30.10F
WINNER         FAIR      86  64  47 NE13      30.02F
$$

SDZ004>011-016>023-039-040-272100-
NORTHEAST SOUTH DAKOTA

CITY           SKY/WX    TMP DP  RH WIND       PRES   REMARKS
ABERDEEN       SUNNY     80  63  55 NE15      30.05S
WATERTOWN      SUNNY     80  62  54 NE15      30.02F
BROOKINGS      PTSUNNY   78  65  63 NE10G18   30.01F
SISSETON         N/A     79  61  53 N15       30.01F
$$

SDZ017-020-022-023-036>040-048>070-272100-
SOUTHEAST SOUTH DAKOTA

CITY           SKY/WX    TMP DP  RH WIND       PRES   REMARKS
SIOUX FALLS    MOSUNNY   82  67  60 N12       30.00S
HURON          MOSUNNY   83  64  52 NE13      30.02R
CHAMBERLAIN    MOSUNNY   85  65  52 NE12G17   30.02S
MITCHELL       MOSUNNY   85  64  49 N12       30.01F
YANKTON        SUNNY     84  57  39 NW7       29.97F
$$

ABBREVIATIONS USED IN REMARKS
   TC - TEMPERATURE IN CELSIUS
  WCI - WIND CHILL INDEX
   HX - HEAT INDEX
  VSB - VISIBILITY





USA.gov is the U.S. government's official web portal to all federal, state and local government web resources and services.